Regional Weather Roundup
Issued by NWS Green Bay, WI

Home | Current Version | Previous Version | Graphics & Text | Print | Product List | Glossary Off
Versions: 1 2 3 4 5 6 7 8 9 10 11 12 13 14 15 16 17 18 19 20 21 22 23 24 25 26 27 28 29 30 31 32 33 34 35 36 37 38 39 40 41 42 43 44 45 46 47 48 49 50

000
ASUS43 KGRB 180611
RWRGRB

NORTH-CENTRAL AND NORTHEAST WISCONSIN REGIONAL WEATHER ROUNDUP
NATIONAL WEATHER SERVICE GREEN BAY WI
1200 AM CST MON DEC 18 2017

WIZ005-009-010>012-018-019-180700-
NORTH CENTRAL WISCONSIN

CITY           SKY/WX    TMP DP  RH WIND       PRES   REMARKS
IRONWOOD       CLOUDY    26  24  92 SW7       29.88F
MANITOWISH WTR CLOUDY    24  24 100 SW8       29.86F FOG
ARBOR VITAE    CLOUDY    27  26  96 SW3       29.87F FOG
EAGLE RIVER    CLOUDY    26  26 100 W6        29.86F FOG
LAND O LAKES   CLOUDY    26  26  98 SW3       29.87F FOG
RHINELANDER    CLOUDY    26  26 100 W7        29.88F FOG
PHILLIPS       CLOUDY    25  25 100 SW5       29.89F FOG
ANTIGO         CLOUDY    25  25 100 W5        29.88F FOG
TOMAHAWK       CLOUDY    25  24  96 CALM      29.89F FOG
MERRILL        FOG       26  26 100 CALM      29.91F VSB 1/2
$$

WIZ013-073-180700-
NORTHEAST WISCONSIN

CITY           SKY/WX    TMP DP  RH WIND       PRES   REMARKS
IRON MOUNTAIN  CLOUDY    26  23  88 CALM      29.87F FOG
MARINETTE      CLOUDY    29  27  92 SW5       29.94F FOG
OCONTO         CLOUDY    28  27  99 CALM      29.93F VSB 3/4
$$

WIZ017-030-035>037-045-180700-
CENTRAL WISCONSIN

CITY           SKY/WX    TMP DP  RH WIND       PRES   REMARKS
MEDFORD        CLOUDY    25  25  97 W3        29.88F FOG
WAUSAU         LGT SNOW  27  27 100 W5        29.89F VSB 1
MOSINEE        CLOUDY    28  28 100 W6        29.91F FOG
MARSHFIELD     CLOUDY    27  27 100 SW6       29.89F FOG
WISC RAPIDS    FOG       29  27  92 CALM      29.94F VSB 3/4
STEVENS POINT  FOG       26  26 100 CALM      29.92F VSB 1/4
WAUPACA        CLOUDY    30  28  90 CALM      29.94F FOG
SHAWANO        FOG       30  28  94 CALM      29.93F VSB 3/4
CLINTONVILLE   NOT AVBL
WAUTOMA        CLOUDY    29  27  92 CALM      29.94F FOG
$$

WIZ038-039-048-051-180700-
FOX VALLEY

CITY           SKY/WX    TMP DP  RH WIND       PRES   REMARKS
NWS GREEN BAY  CLOUDY    30  27  88 W3        29.93F FOG
APPLETON       CLOUDY    30  28  93 W3        29.91F FOG
OSHKOSH        CLOUDY    30  28  92 CALM      29.92F FOG
FOND DU LAC    CLOUDY    30  27  88 S3        29.93F FOG
$$

WIZ022-050-052-180700-
EAST CENTRAL WISCONSIN

CITY           SKY/WX    TMP DP  RH WIND       PRES   REMARKS
EPHRAIM        CLOUDY    30  29  94 W8        29.91F
WASHINGTON ISL CLOUDY    31  30  95 W3        29.92S FOG
STURGEON BAY   CLOUDY    29  28  96 W8        29.93F FOG
MANITOWOC      CLOUDY    30  29  96 W5        29.94F FOG
SHEBOYGAN      CLOUDY    30  30 100 W5        29.94F FOG
$$

LMZ563-521-522-541>543-180700-
LAKESHORE

STATION/POSITION TIME  TEMP    WIND        PRES    VSBY  WAVE
                       AIR SEA DIR/SP/G                  HT/PER
                 (UTC) (F)     (DEG/KT/KT) (MB)    (MI)  (FT/S)
SHEBOYGAN LKSHOR 0600   31     260/  4/  5 1014.7F
KEWAUNEE LKSHORE 0542   30     290/  6/  8 1013.3F
NORTHPORT PIER   0540   32      CALM  /  4 1013.5F
SISTER BAY LKSHO 0505   32     250/  9/ 10   N/A
MENOMINEE LKSHOR 0542   29     330/  7/ 10 1013.5F
$$



USA.gov is the U.S. government's official web portal to all federal, state and local government web resources and services.